Theta_e
319 316 323 335 335 337 341 344 342 346 346 343 340 343 344 348 347 344 344 346 347 337 336 329 322 321 321 321 321 324 329 326 325 323 318 319 321 322 323 323 320 315 312 311 311 312 313 314 315
316 315 329 334 330 336 338 343 348 345 345 345 345 343 343 351 347 345 343 347 347 337 335 326 322 322 321 321 325 326 328 326 323 318 319 321 322 323 324 321 316 312 310 310 310 310 310 311 313
314 318 335 327 327 333 337 346 345 344 345 345 346 345 344 344 344 343 343 341 344 335 333 323 324 322 321 320 324 329 326 325 320 318 320 322 322 323 322 319 314 311 310 309 309 309 309 310 311
327 325 330 328 330 328 341 344 341 338 338 344 347 348 344 344 341 343 344 341 336 335 328 325 325 323 321 320 325 327 326 322 318 319 321 321 322 322 321 317 312 310 310 309 309 309 312 314 312
327 327 322 324 325 326 330 343 340 344 339 338 345 349 349 347 347 346 346 345 337 332 325 327 326 322 320 321 327 326 325 319 318 320 321 322 322 322 320 315 311 311 310 312 318 323 326 325 325
326 322 320 321 321 324 341 344 342 340 336 337 347 347 349 348 346 348 347 345 336 329 326 328 327 322 320 322 328 327 322 318 320 321 324 323 324 323 318 313 312 316 317 324 326 327 329 329 333
322 317 320 320 319 327 342 341 341 337 336 337 345 345 349 349 347 347 340 338 334 326 328 329 327 321 322 323 326 326 320 319 321 325 328 327 325 325 322 317 316 321 320 325 326 327 328 331 333
324 314 318 316 318 330 340 339 337 337 336 341 343 343 347 348 347 347 335 331 328 329 329 329 327 321 322 327 326 325 322 322 324 328 329 327 325 326 324 321 319 322 324 324 326 326 326 330 332
321 315 316 318 318 324 340 339 339 339 337 336 340 342 344 348 347 346 340 336 335 332 331 330 328 322 322 327 328 325 326 326 327 330 330 328 327 326 325 324 323 320 324 325 324 324 326 328 331
316 312 316 316 318 321 339 339 341 339 336 339 338 343 347 348 347 346 343 342 343 337 333 329 328 322 321 327 328 328 329 327 329 331 331 329 328 326 326 324 325 323 323 321 323 322 325 329 330
316 316 316 318 319 321 336 339 340 341 341 338 338 344 346 346 346 345 345 344 343 339 332 328 328 322 320 327 328 329 330 330 330 331 332 331 328 328 327 325 325 324 324 323 321 321 322 323 325
318 317 318 321 320 324 335 338 339 339 335 336 338 344 345 346 345 342 345 344 344 340 336 335 329 322 324 327 328 329 331 332 332 332 332 331 330 330 328 326 324 324 323 323 321 321 321 321 321
315 316 317 320 319 319 330 334 336 338 336 342 338 343 343 344 343 338 343 345 345 341 340 338 330 334 338 340 334 334 334 335 334 333 334 333 331 331 330 328 324 324 324 324 321 321 321 320 320
320 318 318 318 321 319 323 328 333 337 338 344 344 343 342 340 340 342 339 343 345 342 341 339 337 337 340 341 338 338 337 337 336 336 335 333 332 331 329 325 323 323 323 325 323 322 322 321 321
320 318 315 318 318 317 330 330 331 338 343 344 345 343 341 339 342 341 340 340 340 342 342 339 337 339 341 341 338 339 338 337 336 336 335 335 333 332 329 325 324 323 323 322 324 324 323 321 321
317 313 315 316 316 323 331 334 334 338 343 344 344 342 338 332 332 341 340 339 338 339 341 339 338 340 341 340 339 339 339 337 336 336 336 335 333 333 329 325 324 323 322 319 324 323 323 322 321
313 316 316 315 320 323 328 331 332 338 340 343 339 332 335 335 331 339 339 338 337 338 340 339 339 340 341 340 339 339 338 337 336 337 335 333 333 333 329 324 324 322 320 318 322 323 324 324 323
318 318 318 316 326 330 330 330 330 339 337 341 341 337 339 337 332 332 339 337 338 339 340 338 339 339 340 340 339 337 337 337 338 337 334 333 332 332 330 324 323 322 317 318 321 322 322 323 322
318 316 316 317 327 329 330 331 329 330 337 338 340 343 343 335 335 334 331 338 339 340 339 339 339 339 339 339 339 339 340 340 339 337 336 332 332 331 331 328 321 317 324 319 320 321 321 320 321
318 319 321 325 328 330 329 330 329 327 331 337 337 337 337 334 339 338 334 339 339 339 339 339 339 340 340 340 339 339 339 338 338 338 336 332 332 331 329 328 320 327 317 318 318 320 320 320 320
321 320 321 327 330 329 329 329 329 329 330 333 336 343 342 336 338 338 341 342 340 339 339 340 340 341 341 340 340 340 339 339 339 338 334 332 331 330 329 327 323 320 313 313 313 313 313 318 316
323 322 322 326 323 326 325 324 325 329 329 331 333 341 339 337 334 333 344 342 341 339 339 339 340 341 340 339 341 341 341 340 338 337 334 332 331 330 329 328 327 328 325 317 310 311 314 311 318
323 322 322 321 319 319 324 325 322 331 328 329 328 345 346 346 345 345 344 343 342 341 340 340 341 340 339 342 342 342 342 339 337 335 332 332 331 329 328 328 328 328 328 324 310 311 312 311 315
322 322 320 322 319 324 323 325 324 330 327 328 329 346 348 347 347 346 346 345 344 342 341 342 342 342 341 343 343 342 338 336 334 334 334 333 332 330 329 328 328 328 327 321 311 311 310 313 312
321 321 323 325 326 329 328 329 327 327 329 329 331 337 347 347 346 344 339 342 345 344 343 344 343 344 344 343 341 337 337 337 336 335 334 332 332 331 329 329 328 328 325 320 312 310 309 309 311
324 322 321 329 328 325 326 331 327 326 330 331 335 338 342 345 343 337 328 335 341 345 345 345 345 338 333 334 337 338 332 334 332 334 332 332 332 331 329 328 328 327 326 323 316 311 309 308 307
322 321 320 321 321 328 327 327 326 329 329 329 332 337 339 338 334 330 321 320 321 326 331 328 320 321 324 329 331 327 330 330 333 334 333 332 332 331 330 329 328 328 326 324 319 313 311 309 309
321 318 320 317 324 329 325 329 326 330 328 327 329 335 339 339 326 324 324 325 328 327 326 325 327 329 326 328 330 330 332 331 333 334 334 332 333 332 332 331 329 328 326 323 319 316 314 311 309
320 319 316 317 319 322 325 326 322 325 325 325 327 334 338 339 335 325 328 327 332 334 333 332 336 337 336 332 332 333 332 331 332 330 330 331 332 333 333 332 332 330 327 324 323 318 315 316 313
321 320 316 319 321 321 321 323 321 323 323 326 329 332 337 338 336 332 330 330 334 338 339 339 339 338 337 337 336 336 335 334 333 330 332 331 332 334 333 331 332 330 327 326 324 323 319 318 318
Wind_Speed
3 5 3 2 3 4 1 2 3 4 3 6 13 9 8 5 1 3 15 18 16 20 18 14 12 11 11 12 11 13 13 13 12 13 13 13 12 11 11 11 11 11 11 9 7 5 4 4 5
4 1 2 1 4 3 3 5 1 2 8 14 15 12 6 3 2 15 23 14 21 21 18 15 13 12 12 12 11 12 12 12 12 13 12 11 11 11 11 11 12 12 11 9 7 6 4 5 7
2 2 0 4 3 3 3 3 4 3 3 4 5 7 5 7 14 21 18 18 23 20 18 16 14 12 11 10 12 12 11 11 12 12 11 10 10 11 11 11 11 11 10 9 9 8 7 9 10
4 3 3 3 4 5 6 11 6 3 2 4 11 6 9 6 13 14 18 20 21 20 19 17 14 11 11 11 12 11 10 10 11 10 10 10 10 10 10 10 10 11 12 12 13 11 11 11 12
3 2 4 4 5 3 5 23 22 2 1 3 3 6 8 13 5 16 17 16 17 19 18 15 13 12 11 11 12 10 9 10 10 9 9 10 10 10 10 10 10 12 14 18 18 14 13 13 12
3 3 4 2 5 4 3 16 14 6 5 1 8 8 3 7 13 17 12 14 17 17 16 14 13 12 11 12 11 9 9 9 9 9 9 11 11 11 11 12 12 14 17 18 16 13 15 16 15
5 4 3 2 5 3 4 6 3 6 6 4 12 5 9 19 16 13 13 13 16 17 15 13 12 12 13 13 11 10 9 8 7 9 9 9 11 13 13 13 12 13 14 14 11 9 14 16 17
2 4 1 3 3 4 7 4 4 6 0 11 10 6 7 25 22 18 17 18 18 14 14 13 12 11 13 14 12 11 9 7 6 7 7 8 9 12 13 12 11 11 11 10 6 9 12 14 14
3 4 2 3 5 3 5 4 6 3 6 7 3 13 3 26 24 21 21 19 16 15 14 14 12 10 12 12 11 10 8 6 5 6 6 6 7 9 10 9 9 8 8 7 3 9 11 13 13
4 3 6 5 5 5 13 6 12 5 11 1 7 16 19 25 23 21 22 20 18 16 15 14 12 11 12 12 10 9 7 6 5 4 4 4 5 5 6 6 5 6 6 5 2 7 10 12 11
3 4 3 6 7 5 20 8 7 10 1 9 25 29 24 23 23 22 21 22 15 15 15 15 13 12 12 11 8 7 6 5 3 1 2 3 4 5 4 2 3 1 5 5 3 5 6 8 8
1 12 6 11 4 6 12 10 8 9 3 14 35 36 29 25 24 23 25 25 22 18 15 12 12 13 13 10 7 7 6 5 2 3 2 4 3 5 4 4 4 3 2 5 3 5 6 4 5
4 4 8 5 4 5 11 4 2 10 12 23 35 34 30 28 24 17 19 24 26 21 17 15 14 16 14 10 9 8 8 5 3 3 5 6 6 6 7 8 6 3 1 4 5 3 4 6 4
6 9 11 1 8 3 12 9 3 7 24 29 33 34 26 27 21 20 18 24 28 25 22 17 16 15 14 10 11 9 9 7 5 4 4 6 9 9 10 7 4 3 1 4 4 3 3 1 6
6 5 8 5 4 5 6 8 5 19 23 28 30 30 28 26 23 21 18 24 26 27 25 22 18 15 14 12 13 12 11 9 9 6 5 8 10 11 10 9 7 5 4 5 7 6 8 5 3
4 5 4 5 7 5 9 5 1 20 29 27 30 27 22 20 22 16 18 19 24 27 25 22 21 18 18 17 16 16 14 13 11 9 9 10 10 12 11 10 8 6 5 4 10 8 9 9 8
7 1 2 9 3 4 6 5 8 18 21 25 23 19 14 11 12 20 17 15 24 27 27 24 21 17 16 17 19 18 17 15 12 12 10 11 11 12 12 12 11 8 6 10 8 9 6 8 12
2 1 3 5 5 12 12 4 5 12 18 17 24 26 23 11 8 13 21 13 22 26 31 27 20 17 16 20 19 19 18 16 15 14 14 14 14 11 11 13 12 12 10 5 10 11 9 7 9
1 5 7 4 3 7 5 7 4 5 11 13 21 25 25 20 10 11 15 17 20 29 30 27 21 22 19 16 21 22 21 20 18 16 14 15 12 10 10 11 9 8 14 8 12 11 11 11 12
9 1 3 3 5 4 6 5 4 4 5 11 13 21 29 26 19 11 20 20 20 30 30 28 25 23 21 19 20 19 20 20 19 15 15 15 13 11 9 10 11 13 9 9 10 12 13 14 14
3 6 4 7 3 5 5 2 7 4 7 10 9 14 16 24 20 16 19 23 23 32 31 28 24 21 19 19 17 17 15 16 15 15 15 14 13 13 10 11 9 8 8 7 9 10 11 15 14
3 1 7 9 5 4 2 4 4 5 3 8 9 18 15 17 12 15 15 17 22 28 29 26 23 20 21 18 16 17 15 13 13 13 13 12 13 12 14 14 14 11 10 7 9 9 10 12 14
5 4 4 4 4 4 1 3 5 0 6 6 9 16 14 12 12 13 11 11 16 21 21 23 22 20 22 17 16 18 17 15 13 11 12 11 10 10 15 14 15 14 13 11 9 9 9 10 14
4 4 7 4 4 3 5 4 5 5 7 7 12 16 16 16 15 14 13 16 20 23 27 24 25 17 17 18 17 17 14 11 11 10 11 10 8 9 14 17 18 16 13 13 11 11 11 11 11
8 6 4 4 5 4 2 3 8 3 6 8 19 27 23 20 19 16 15 20 22 24 23 25 25 18 17 17 17 14 12 9 9 10 10 9 10 9 10 15 16 15 14 14 12 11 12 12 13
3 6 5 4 2 4 3 3 5 3 9 9 19 26 26 25 22 19 16 16 17 21 23 23 20 17 16 15 14 13 11 9 7 8 8 8 9 6 9 13 16 17 17 16 13 13 11 11 12
2 1 2 7 3 3 3 6 5 3 6 10 10 20 24 24 25 23 19 16 16 17 18 16 15 14 13 12 13 12 10 8 6 7 8 8 8 7 8 10 13 15 16 17 14 13 13 14 11
4 5 3 3 4 2 4 4 4 4 8 8 6 21 26 24 22 23 21 20 17 15 15 16 16 12 10 11 10 9 8 8 8 10 10 10 10 11 11 11 11 13 13 14 14 15 14 14 13
3 2 6 5 4 4 1 5 6 8 9 8 16 24 26 28 26 26 24 20 18 17 17 18 16 10 9 9 10 8 8 9 11 13 12 12 13 13 14 15 16 15 16 15 15 15 16 16 14
3 4 4 5 2 1 4 5 4 5 8 10 23 32 33 31 30 29 27 21 21 21 19 19 17 13 13 11 10 11 11 11 13 12 14 14 17 17 19 18 18 19 18 18 18 17 18 17 18
Wind_Direction
298 306 319 335 46 57 11 205 258 153 24 46 83 102 108 58 95 187 144 155 169 167 166 166 166 161 154 141 136 125 121 111 104 101 99 93 81 70 59 52 45 38 40 47 61 84 119 152 151
293 296 304 99 82 61 318 310 98 271 138 117 87 108 71 77 90 140 149 154 170 168 165 165 168 166 154 147 135 128 118 111 108 106 99 88 77 65 54 47 41 38 43 54 69 82 103 125 115
219 159 78 96 106 135 129 224 254 271 220 274 107 83 98 107 125 144 157 154 169 167 166 168 168 166 159 152 136 128 119 115 112 107 93 79 68 61 53 46 42 44 53 65 77 90 106 117 124
156 154 75 85 254 241 158 181 211 222 101 4 109 72 73 65 125 149 156 158 166 169 168 166 166 167 163 147 141 131 124 120 110 96 87 75 68 62 57 51 50 59 68 78 90 103 110 111 125
147 62 44 4 280 213 250 178 170 233 314 28 353 83 98 134 149 146 152 161 173 171 167 165 166 169 162 153 144 135 127 121 110 95 83 77 69 59 54 56 66 74 83 94 100 100 91 97 107
89 84 55 272 269 330 24 160 157 207 138 153 99 97 75 171 149 147 145 168 176 176 168 171 171 169 162 152 144 136 131 125 110 99 89 82 69 64 63 68 81 82 91 98 92 91 89 94 100
123 92 206 246 268 297 169 165 245 167 158 194 142 81 137 157 152 141 140 152 166 171 175 179 178 172 164 157 151 141 139 127 116 99 88 85 70 65 62 68 81 90 98 96 88 81 88 102 106
159 91 323 244 333 340 169 121 123 41 192 159 152 136 176 167 162 158 156 159 162 174 183 183 187 179 170 160 155 148 145 144 117 101 92 89 67 67 67 70 77 87 105 117 95 64 79 104 107
179 59 298 244 155 240 167 101 167 219 197 188 52 61 161 167 169 171 173 167 171 183 186 189 193 189 174 169 162 155 155 133 127 121 111 104 75 70 68 74 72 81 91 109 113 59 80 109 111
110 111 236 212 152 174 168 163 188 164 171 17 122 114 146 170 181 185 187 179 185 184 185 197 197 189 182 176 170 165 164 160 162 132 110 77 66 65 63 70 68 65 83 59 75 45 80 107 104
167 195 224 271 307 197 162 186 198 154 278 203 160 150 157 178 194 202 208 204 203 186 183 190 197 192 183 175 174 179 180 183 180 206 108 51 30 31 28 41 7 358 92 68 87 81 78 91 98
267 250 229 279 328 173 163 158 184 137 150 160 158 161 179 189 198 201 206 210 205 197 190 187 196 196 177 176 178 193 184 191 244 252 358 356 357 1 349 327 324 277 93 88 142 98 79 55 83
180 270 202 259 294 136 163 197 150 195 148 147 156 167 183 197 208 205 218 211 209 206 196 186 183 177 176 176 191 195 192 201 213 242 334 334 328 326 317 304 289 263 229 117 147 111 66 48 45
296 287 287 188 302 348 122 55 134 154 160 154 161 174 185 203 205 205 218 222 215 213 198 192 188 190 192 192 201 205 214 214 228 257 306 320 307 302 300 295 267 268 281 177 163 185 235 93 43
324 10 340 352 359 38 86 28 340 162 164 160 169 180 194 205 215 204 219 231 236 219 206 196 195 192 202 207 209 220 223 234 238 240 266 296 294 290 287 268 258 256 275 278 226 207 200 191 139
38 49 34 297 32 6 104 289 300 167 163 168 175 185 205 225 214 232 217 232 247 228 212 204 205 200 201 210 215 225 233 230 234 239 274 286 288 294 282 259 247 235 261 272 217 217 191 217 220
15 141 281 322 21 138 63 180 194 176 174 170 181 191 211 254 232 214 217 247 232 220 212 211 215 209 215 216 220 220 220 225 229 257 266 280 290 287 277 260 253 244 237 273 228 215 225 226 220
178 27 296 249 356 83 84 102 69 164 182 182 203 216 234 237 253 232 218 223 220 210 202 212 212 218 222 223 217 213 219 229 246 256 265 282 284 273 277 268 264 266 253 235 231 225 234 211 219
175 167 217 267 146 91 103 116 89 105 169 203 217 234 244 234 244 232 215 209 215 207 204 207 224 219 229 236 233 229 239 254 258 259 264 287 283 274 274 277 267 254 274 216 220 223 237 237 236
261 356 137 25 60 87 142 125 95 137 189 198 222 235 233 233 231 222 217 215 210 207 202 210 216 227 234 254 252 248 254 252 251 254 271 284 285 270 268 267 249 281 215 215 232 237 238 241 241
303 174 192 160 80 82 111 103 150 206 213 188 200 212 212 216 223 207 220 216 216 208 209 216 230 236 253 269 263 268 262 261 267 265 267 278 286 264 245 248 238 250 234 230 241 254 248 238 229
93 201 129 131 106 200 95 242 284 151 147 163 149 172 165 191 217 209 204 212 219 211 217 229 235 241 250 251 258 262 272 281 265 267 255 273 286 257 222 241 231 248 265 270 246 254 250 228 226
196 164 115 135 128 100 212 115 258 212 154 192 170 151 167 169 178 190 209 210 214 211 218 223 229 242 239 243 253 260 270 267 273 251 257 271 283 243 215 228 228 247 266 260 241 248 251 232 230
92 77 45 63 90 30 290 126 283 188 180 163 174 165 172 170 177 185 189 205 208 207 212 220 219 238 231 239 245 255 261 274 257 265 270 271 288 241 215 222 224 240 238 247 245 244 247 241 241
72 53 5 10 14 215 312 76 241 218 199 187 172 174 183 186 191 192 191 189 201 201 208 216 224 233 233 236 243 242 257 270 271 284 299 286 299 255 243 230 227 230 237 244 247 247 252 249 251
56 140 145 190 185 267 281 234 265 316 178 191 187 179 185 194 201 198 186 176 183 196 206 215 224 224 222 223 224 237 251 252 276 303 298 292 304 271 242 239 233 234 245 251 254 250 250 247 240
194 62 178 102 23 65 281 302 322 19 186 213 196 190 195 199 201 190 177 179 184 192 198 201 203 208 215 219 220 221 234 249 271 291 290 283 282 285 256 246 244 245 252 256 253 254 249 249 241
112 152 60 18 134 211 301 289 237 258 246 259 231 212 208 206 202 197 191 192 191 191 192 196 203 211 218 219 222 232 244 248 257 268 277 277 271 267 266 263 256 253 255 255 253 251 246 250 247
13 43 52 110 112 151 158 274 218 231 236 240 241 237 228 218 216 211 207 207 208 205 205 210 213 219 243 247 239 239 251 263 263 269 267 270 269 271 270 268 268 264 262 256 257 251 248 256 252
127 88 109 111 229 89 141 267 252 242 216 218 237 239 239 234 227 228 221 215 220 221 225 228 230 243 259 259 250 258 265 264 267 270 273 269 282 287 272 267 264 266 268 267 260 259 258 261 259